Wind_Speed
9 12 15 15 14 13 12 8 5 5 5 3 4 3 2 5 3 6 2 3 3 3 6 10 14 17 13 9 13 15 13 11 9 5 3 4 7 8 6 8 9 8 7 8 7 7 7 7 8 8 8 9 9 9 9 9 8 8 8 7 7 6 7 7 7 7 8 7 7 7 7 7 6 7 6 5 5 5 5 4 4 4 4 3 3 3 3 2 3 3 3 3 3 4 5 6 6
11 15 18 18 16 11 7 5 7 6 1 2 4 7 1 2 1 4 4 2 1 2 8 12 15 18 14 10 11 13 12 12 10 6 5 7 7 6 6 9 11 10 8 8 8 7 7 7 8 8 8 8 8 9 8 7 7 7 7 6 6 6 7 7 7 8 8 8 8 7 6 6 6 6 7 6 5 4 4 4 4 3 3 3 3 3 3 3 3 3 3 3 3 4 5 5 4
11 15 18 17 14 10 6 6 7 6 2 1 2 7 4 2 3 4 5 1 1 6 12 14 15 13 12 12 12 10 8 9 9 6 6 7 3 4 7 10 11 11 10 9 9 7 8 8 8 8 8 8 8 8 7 7 7 6 6 6 6 6 6 6 7 7 7 7 8 7 7 6 6 7 7 6 5 4 3 3 4 3 3 3 4 4 4 4 3 3 3 3 3 3 3 4 4
12 15 17 15 8 8 7 6 7 5 4 1 2 4 5 2 2 5 5 5 8 11 11 10 11 10 13 12 7 7 7 7 8 6 5 7 4 4 9 10 10 9 9 9 9 8 8 8 8 8 8 9 9 8 7 7 7 6 6 5 6 6 6 6 6 7 7 7 8 8 8 7 7 7 7 6 5 4 3 4 4 4 4 4 4 4 4 3 3 3 2 2 2 1 2 3 3
14 16 18 14 7 5 5 5 5 2 3 3 3 1 4 1 5 9 3 12 16 16 12 8 8 8 13 10 3 3 5 2 7 9 6 7 7 6 9 9 9 8 9 9 9 8 7 8 8 8 8 9 8 7 7 7 7 6 6 6 6 6 6 5 5 7 7 7 8 10 10 9 8 7 7 6 5 3 3 3 4 4 4 3 3 3 3 2 2 2 1 1 1 2 2 2 3
16 18 18 15 7 5 6 4 4 3 4 3 4 3 6 5 4 8 3 17 17 16 13 7 8 9 10 7 6 6 5 2 4 8 6 7 8 9 9 8 8 10 10 9 9 8 7 7 8 8 8 8 7 7 7 7 7 7 7 6 6 6 5 5 6 7 8 8 9 10 10 11 9 7 6 6 5 4 3 2 3 3 3 3 3 3 3 3 3 3 2 1 2 3 3 3 3
16 13 11 11 6 5 7 1 6 4 5 4 3 3 7 4 5 1 8 11 10 11 8 5 8 10 7 4 6 9 10 8 4 6 7 7 9 10 10 8 9 11 9 8 9 8 7 7 7 8 7 8 7 7 7 7 7 7 7 6 6 6 5 5 6 7 8 8 8 9 10 10 10 8 6 5 4 4 3 2 3 3 3 2 3 3 3 3 4 3 3 2 3 3 3 4 4
16 10 4 7 5 3 5 4 7 4 6 6 2 2 5 2 5 8 9 6 7 9 7 6 9 10 8 5 5 7 10 10 6 7 8 9 9 9 9 10 9 8 7 8 9 8 8 8 8 8 8 8 8 8 8 8 8 7 7 6 7 6 6 7 7 7 8 8 8 8 9 10 10 9 7 5 4 3 2 1 1 1 1 1 2 2 3 4 3 3 4 4 4 4 4 5 5
14 9 5 6 4 3 5 3 5 4 6 10 7 7 7 1 2 9 8 8 10 10 11 10 10 9 9 10 7 6 7 7 7 8 9 9 9 9 10 10 8 7 7 7 8 8 9 9 8 8 8 9 9 9 8 8 8 8 7 7 8 7 7 7 6 7 7 7 7 8 9 9 9 9 9 7 5 3 2 2 1 2 2 2 3 3 4 4 4 4 5 5 5 5 5 5 6
9 7 5 5 4 4 3 1 5 6 5 7 8 1 4 4 3 11 9 11 11 10 11 10 11 10 9 9 7 3 3 4 6 8 8 8 8 9 10 10 9 9 8 7 7 8 9 9 10 9 10 10 10 9 8 8 8 7 7 7 7 6 6 6 5 7 7 7 7 8 8 9 9 9 9 8 7 5 3 4 4 4 4 5 5 5 6 6 6 6 6 6 5 5 6 6 7
6 6 5 3 5 3 3 2 6 4 5 4 10 1 6 5 7 10 8 10 11 11 9 6 8 10 10 7 5 2 3 5 7 7 7 8 8 8 10 9 10 9 8 8 8 8 8 9 10 11 12 13 12 10 9 8 8 7 7 7 6 5 5 5 6 7 7 7 8 8 8 8 9 9 9 8 8 7 5 5 5 5 5 6 7 7 8 8 7 7 7 7 7 7 8 8 9
6 5 1 2 5 4 3 4 6 5 5 2 7 7 9 7 9 9 9 10 9 11 10 6 3 5 8 6 4 3 5 7 7 7 6 8 7 8 9 9 10 10 8 7 7 8 8 8 9 10 13 14 13 12 9 8 8 7 7 6 6 6 6 6 7 8 9 9 9 9 9 8 8 9 9 9 8 7 6 6 6 6 7 8 8 9 9 9 9 9 9 8 9 9 10 11 11
7 3 3 2 5 5 6 4 3 7 3 3 5 8 10 9 10 8 9 11 11 10 11 8 5 4 7 5 3 3 6 7 7 7 6 7 7 8 9 10 10 10 8 6 7 7 6 7 7 9 11 10 10 11 10 8 7 7 7 7 7 7 7 8 9 10 10 10 11 11 11 9 8 8 8 8 8 8 7 7 7 7 8 9 9 9 10 10 11 11 11 10 11 11 12 12 13
5 3 2 1 4 6 6 4 2 4 2 3 4 5 10 9 9 9 8 11 13 10 10 10 6 7 6 5 3 3 5 6 6 6 7 7 6 7 9 10 9 9 9 6 7 8 6 7 7 9 9 6 7 10 10 9 8 8 8 8 8 8 9 10 9 10 10 11 12 12 12 11 9 9 9 9 8 8 8 7 7 8 9 10 10 10 10 11 11 12 12 12 12 13 14 14 15
4 5 2 2 6 6 3 3 3 2 2 2 2 5 9 8 8 10 10 11 12 10 10 13 9 6 2 3 4 4 6 6 5 6 7 6 5 8 9 9 7 7 9 7 9 11 9 8 7 8 8 5 6 8 9 9 9 9 9 8 8 8 9 10 10 11 11 11 12 12 11 11 10 10 10 10 9 9 9 8 8 9 10 11 11 11 11 12 12 12 13 13 14 15 15 16 16
5 6 3 4 6 6 6 6 4 1 2 2 4 8 8 7 8 10 11 10 10 12 12 13 12 8 5 6 6 5 6 5 4 5 6 5 6 9 8 7 7 8 9 8 10 11 10 9 8 9 9 6 6 7 8 9 8 8 8 8 8 8 9 11 10 10 9 9 11 12 10 9 10 10 10 11 11 10 10 9 10 10 11 11 11 11 11 12 13 13 14 14 15 16 17 18 18
7 5 4 4 4 4 4 3 5 1 4 7 8 7 5 5 7 9 11 12 12 13 13 12 13 13 10 7 6 6 8 8 6 6 6 5 6 7 7 8 9 8 7 9 11 10 11 11 10 10 9 8 8 8 8 8 7 7 8 7 8 8 8 9 9 8 8 9 10 10 9 9 10 10 9 10 11 10 10 10 11 11 11 12 11 12 12 13 14 14 14 15 15 16 17 18 19
8 4 5 2 2 3 4 2 6 3 7 10 7 6 5 5 6 7 8 12 13 12 13 12 13 14 13 9 7 8 10 10 10 9 9 9 7 6 7 8 8 6 5 9 11 10 11 11 11 11 10 10 8 7 8 7 6 6 6 5 7 7 6 7 8 8 8 9 9 8 9 9 9 9 8 10 11 11 10 11 12 11 10 11 11 11 13 14 14 14 14 16 16 17 18 18 19
6 3 4 2 2 7 6 5 6 6 9 10 8 7 8 8 7 7 8 12 12 12 11 11 13 13 13 11 8 9 9 10 12 11 11 10 8 7 7 7 7 6 7 9 9 11 10 11 12 11 11 10 8 8 7 6 6 6 5 5 7 7 6 6 8 9 9 9 8 7 7 7 8 9 9 10 10 10 10 11 13 11 9 9 10 11 13 14 13 13 14 15 16 17 17 16 15
4 3 2 3 3 9 10 8 8 9 10 9 10 10 10 9 6 6 10 13 13 12 10 10 12 11 11 11 9 10 10 11 13 10 10 10 8 8 7 6 7 7 8 8 9 9 8 9 11 10 10 9 9 9 7 6 7 7 6 6 7 7 7 7 8 7 8 9 8 7 6 5 7 8 8 9 9 10 11 12 15 13 10 9 10 11 13 14 14 14 15 14 15 15 14 13 13
3 2 2 2 5 8 10 14 12 10 9 9 10 10 10 9 7 6 8 10 10 11 10 11 12 11 11 10 8 10 10 13 13 8 8 10 9 9 7 6 9 9 8 9 9 8 6 7 8 8 9 9 9 7 7 7 7 7 7 8 7 7 8 8 8 7 9 10 9 8 8 6 7 8 8 9 9 11 12 12 14 14 11 11 11 11 13 14 15 16 15 14 13 13 12 13 15
5 4 6 7 7 8 10 15 15 9 9 10 10 10 10 9 9 11 11 10 8 9 10 11 12 11 9 8 8 10 10 12 11 7 8 9 9 9 8 7 9 9 8 8 8 8 7 7 7 6 7 8 8 7 7 8 8 8 8 9 9 8 9 9 9 9 9 10 10 8 9 9 8 9 9 11 11 11 13 13 13 14 12 12 11 11 13 14 15 16 14 14 14 12 12 13 13
4 7 8 10 9 10 10 12 13 10 11 11 9 10 10 10 11 13 14 12 9 9 10 11 13 11 9 8 8 8 9 10 9 8 8 8 9 9 8 7 6 7 8 8 7 7 6 6 8 7 7 8 8 8 8 8 9 9 9 9 10 10 10 10 10 11 9 8 10 9 10 11 10 11 11 12 13 12 13 14 13 14 13 13 12 12 14 14 14 15 15 16 15 13 13 12 10
7 8 9 11 11 11 11 11 13 13 14 11 9 10 10 11 11 11 13 12 10 10 11 12 13 11 9 8 7 7 9 9 9 7 8 9 9 9 7 7 6 7 8 8 7 6 6 7 7 8 8 9 8 9 9 9 10 9 9 9 10 10 10 10 10 11 10 9 10 10 10 12 12 12 13 13 14 14 14 14 14 14 14 14 13 13 15 14 15 16 15 16 15 14 13 11 10
8 8 9 10 11 12 11 13 13 12 12 10 10 11 12 12 11 12 12 11 10 10 11 11 11 10 8 7 6 6 7 9 10 8 8 8 8 8 7 8 8 8 9 7 7 6 7 7 8 9 9 10 10 10 10 10 10 10 10 10 11 11 10 11 10 11 11 10 11 12 11 13 14 13 14 14 14 15 15 13 15 15 15 16 15 15 15 14 16 16 16 16 15 14 11 10 11
7 9 10 10 11 11 11 13 13 10 9 8 10 12 12 10 10 11 12 10 9 9 10 9 9 8 7 6 4 4 6 8 9 8 8 7 7 6 5 6 8 9 9 8 8 8 8 8 9 9 10 10 11 10 10 10 10 11 11 10 10 11 12 11 11 11 11 11 12 13 12 12 14 14 14 15 15 15 15 14 15 15 15 16 15 16 16 15 17 16 17 18 15 14 12 11 12
9 10 11 11 11 10 11 13 12 10 8 8 10 11 11 8 7 8 9 8 9 9 9 9 8 8 7 6 5 5 7 9 10 8 7 7 7 7 6 7 9 9 9 9 9 9 9 9 9 10 10 10 11 10 10 11 11 11 11 11 10 10 11 11 11 11 12 11 11 12 13 13 13 14 14 15 15 16 16 15 15 15 16 15 15 17 16 16 17 17 18 17 15 15 14 13 12
10 9 10 12 11 10 12 11 10 8 7 9 11 12 12 10 9 8 8 7 9 9 8 9 7 6 7 6 6 7 8 11 12 10 7 7 8 8 9 8 8 8 9 10 10 9 9 9 9 9 10 10 11 11 11 11 12 12 11 11 11 10 10 10 11 11 11 11 11 12 14 14 14 14 15 15 15 17 17 16 15 16 16 14 15 16 16 16 17 17 18 16 16 17 15 13 12
8 8 9 11 9 8 9 6 6 7 7 8 8 10 11 9 9 10 10 8 9 9 8 8 6 5 6 7 7 7 8 11 12 11 10 10 10 10 9 7 6 9 10 10 9 9 9 9 9 10 11 11 11 12 13 12 13 13 12 11 11 12 11 10 11 12 11 11 12 13 14 15 15 16 16 16 16 17 18 18 16 16 15 14 17 16 15 16 16 17 18 17 18 19 17 14 11
7 7 6 6 4 5 7 3 2 6 5 3 4 5 7 7 10 11 10 10 9 9 8 6 5 4 5 6 7 7 8 11 11 11 12 12 11 10 10 9 10 12 10 9 10 10 10 9 10 10 12 13 13 14 14 13 13 13 13 12 13 12 13 12 11 12 13 13 13 14 15 15 16 17 18 18 19 18 19 21 20 18 16 16 18 16 16 17 16 17 17 17 17 18 18 18 12
6 4 3 2 3 5 7 3 2 4 6 4 7 6 3 6 11 12 9 10 10 9 7 6 4 3 3 4 6 7 8 10 11 11 12 12 11 10 11 11 12 12 11 11 13 12 12 11 12 13 14 15 16 16 16 15 13 13 13 14 15 14 14 14 15 15 15 16 15 14 15 15 16 17 17 18 19 19 20 22 22 21 20 19 18 17 18 18 18 16 15 16 17 16 17 20 15
2 1 1 1 3 6 7 5 2 4 6 5 7 6 4 5 11 13 10 11 12 9 7 6 5 3 3 3 6 6 7 9 11 11 11 11 11 11 11 11 11 13 16 18 18 16 16 15 15 16 15 16 18 18 18 17 14 15 16 15 15 15 15 15 17 18 16 15 16 15 16 17 18 19 19 20 20 20 20 21 21 22 22 21 20 20 19 19 19 18 15 15 17 17 16 18 18
2 1 0 1 4 5 4 3 5 6 5 6 7 6 6 7 10 13 12 13 13 9 6 7 6 5 4 4 5 4 4 8 9 10 10 10 11 11 11 12 14 19 20 19 17 16 17 17 16 16 16 17 18 18 17 16 15 16 16 15 14 15 18 16 16 18 17 16 18 18 18 20 20 21 21 21 21 20 21 21 21 21 21 21 21 21 21 20 21 20 18 16 16 18 16 15 18
4 3 1 2 6 5 3 4 7 8 8 11 11 8 9 10 10 12 12 13 13 10 8 7 6 5 5 5 4 2 3 5 7 11 12 10 11 11 12 16 18 19 17 15 14 15 17 17 16 17 18 18 19 18 18 17 17 17 17 17 15 17 20 18 17 19 19 18 21 19 18 20 21 22 21 21 21 20 20 21 22 22 22 21 21 21 21 21 20 21 22 19 17 17 18 17 16
4 6 4 3 6 5 6 6 4 8 11 12 10 9 12 11 10 10 12 13 12 10 8 7 7 7 6 6 3 2 4 5 9 13 13 12 14 14 14 17 17 15 14 14 15 17 17 17 17 18 18 18 19 19 17 17 17 16 18 21 20 19 20 19 18 20 21 20 21 20 19 19 20 22 21 20 20 20 21 22 22 22 22 21 21 21 22 22 21 21 23 22 20 19 19 19 17
7 6 8 6 7 6 8 8 5 9 11 11 10 9 10 11 10 11 10 11 12 11 9 7 8 7 6 6 3 4 6 6 9 11 11 12 13 13 14 16 15 14 15 15 16 18 18 17 19 20 19 18 18 19 19 19 19 19 20 22 22 21 22 20 19 21 22 22 22 21 22 22 21 22 22 20 19 20 21 23 22 21 21 21 22 22 23 23 22 22 22 22 21 20 20 20 18
4 6 9 8 8 8 9 8 7 10 8 8 11 10 10 10 10 10 8 9 11 11 10 8 8 7 5 6 6 6 7 8 10 11 10 12 12 13 14 13 13 14 15 16 18 17 16 17 20 21 20 20 20 21 21 21 21 21 19 19 20 21 20 19 18 20 20 20 21 20 20 22 21 20 22 21 18 18 21 23 22 22 23 23 22 22 23 23 23 23 22 22 21 20 21 21 20
6 6 7 7 8 8 10 9 7 9 7 6 10 11 10 9 9 10 8 8 10 10 11 10 9 8 6 7 8 8 8 8 10 10 10 11 12 11 11 12 13 14 15 16 17 15 15 17 21 23 22 23 23 21 20 20 20 19 15 15 17 17 17 17 17 19 18 18 20 21 20 21 21 20 21 20 18 18 20 22 22 22 22 23 24 23 23 23 23 23 20 21 22 21 21 21 22
7 6 6 6 7 8 9 11 9 5 5 7 9 11 10 9 9 10 9 9 10 10 11 10 10 9 8 7 8 8 8 8 7 8 9 10 9 9 10 11 12 13 15 15 14 14 17 20 21 23 23 22 22 21 20 20 20 19 16 15 16 15 16 18 17 18 19 18 19 22 22 21 21 21 22 22 20 20 20 21 22 23 23 23 23 24 24 23 22 22 19 18 21 21 21 22 22
5 6 6 5 7 6 6 10 7 2 4 9 11 10 8 8 9 9 9 10 10 11 12 11 10 10 10 9 9 9 9 8 7 8 8 8 8 8 9 9 11 14 16 17 16 15 18 20 20 20 20 21 21 21 20 20 21 21 19 18 17 16 17 18 18 19 21 20 20 23 24 23 22 21 23 24 23 23 22 22 22 23 23 23 23 23 25 25 23 21 20 19 19 20 20 21 23
4 6 6 5 7 6 7 11 8 6 7 10 9 8 6 6 8 7 8 9 9 10 11 11 11 11 11 11 11 10 9 8 8 8 9 10 9 7 8 10 12 13 14 15 16 16 17 17 18 18 19 20 21 21 20 20 21 22 21 20 19 18 18 19 20 21 23 22 20 23 24 23 22 22 24 25 24 23 23 24 24 24 24 25 25 24 26 27 26 25 24 22 21 20 19 21 24
4 7 6 8 10 8 11 14 8 3 5 5 2 3 5 5 7 7 6 8 9 9 9 11 11 11 11 11 11 11 9 8 9 10 11 11 10 10 12 13 13 13 14 15 15 16 17 17 18 19 19 20 20 21 21 21 21 22 22 21 21 20 19 19 20 20 21 22 20 21 23 22 21 22 23 25 25 24 23 24 25 24 24 25 26 27 27 28 28 28 28 26 24 22 20 19 23
2 8 12 10 10 10 11 11 6 2 2 3 1 1 4 5 6 7 7 9 9 8 10 10 10 10 10 9 10 10 10 10 10 11 13 13 12 14 15 14 14 15 15 16 16 17 18 18 18 18 19 20 20 21 21 21 20 20 20 19 19 19 19 18 20 19 20 22 21 20 22 21 21 22 22 23 23 22 23 24 24 24 25 25 25 27 28 28 28 30 29 27 26 25 21 19 21
2 11 17 13 11 11 9 8 4 2 1 4 5 3 4 4 5 7 8 10 10 9 10 10 9 11 10 10 11 11 11 11 10 10 12 14 14 15 16 15 16 16 15 16 16 17 17 17 17 17 17 19 20 20 20 20 20 19 19 19 18 19 20 19 20 20 20 22 21 21 22 22 21 22 22 22 22 21 22 23 23 25 26 26 26 26 27 29 29 30 31 29 28 29 26 23 23
4 10 13 11 11 10 7 5 4 1 1 2 5 5 5 4 5 6 6 9 9 9 10 10 10 11 12 12 12 12 13 12 11 11 12 14 16 16 16 16 16 16 16 15 15 15 16 16 17 16 17 18 19 18 18 19 19 19 19 21 20 19 20 20 20 20 21 22 21 21 23 22 21 22 22 22 21 22 23 24 23 24 26 27 28 28 28 30 29 30 32 32 29 30 29 26 25
3 7 7 8 9 7 5 2 3 3 1 2 6 6 3 4 4 4 5 6 8 8 8 9 10 10 11 12 12 12 12 12 12 13 14 15 16 17 17 16 16 15 14 14 14 14 15 16 17 17 17 17 17 17 17 18 19 20 20 21 21 20 19 20 21 20 22 22 21 22 23 23 23 22 22 21 22 23 24 25 26 25 26 26 27 28 29 30 30 30 31 30 29 30 29 27 25
2 6 10 12 10 7 5 3 3 1 2 2 7 6 3 4 4 3 4 5 7 8 7 9 11 11 11 11 11 12 11 11 11 12 15 16 16 16 16 15 15 14 14 14 14 14 15 16 16 17 17 16 16 17 17 17 18 19 21 21 21 21 20 20 21 21 22 22 22 23 23 23 23 23 23 22 23 25 24 26 27 24 25 26 26 28 30 29 29 31 31 29 29 30 28 26 26
6 9 8 7 4 4 3 2 2 1 2 3 7 6 3 2 3 4 6 7 8 9 8 10 11 11 11 10 10 11 10 10 11 10 12 14 15 15 14 15 15 14 15 14 14 14 15 15 15 15 16 16 16 16 17 19 18 18 20 20 20 20 20 20 20 20 21 22 21 22 22 23 23 23 24 23 24 26 25 26 27 24 25 26 26 28 29 30 29 29 30 29 30 30 28 26 25
8 8 5 4 0 1 1 2 1 1 3 4 9 8 5 4 5 7 8 9 9 9 9 10 11 11 11 10 10 10 10 10 10 9 9 11 12 13 13 15 15 15 16 15 15 15 14 15 14 14 16 17 18 17 18 19 19 19 20 20 19 19 19 20 20 19 21 21 21 22 22 23 23 23 25 25 24 26 27 28 27 24 25 26 27 29 29 30 31 30 29 29 29 29 27 26 26
6 6 4 2 2 1 1 2 2 3 4 4 11 9 5 6 5 7 9 9 9 9 10 10 11 11 11 11 10 10 10 10 9 9 9 10 12 12 13 14 15 15 15 15 15 14 14 14 14 15 16 18 19 18 18 19 19 19 20 20 20 19 19 20 19 19 21 21 21 22 22 23 24 23 25 25 25 26 27 28 27 24 26 26 27 29 29 30 32 31 30 30 29 29 27 26 26
3 5 5 3 2 1 0 1 2 4 1 1 6 6 5 5 5 7 9 10 10 9 10 10 10 10 10 10 10 10 10 9 9 9 10 11 13 12 13 14 14 14 13 14 14 13 13 13 14 14 15 17 18 18 18 19 19 19 20 20 20 20 19 19 20 20 21 22 22 22 22 23 24 24 25 25 25 26 26 28 26 23 26 27 27 30 30 31 32 31 31 31 29 29 29 28 26
1 1 4 3 2 3 1 2 3 5 2 1 3 4 5 6 7 9 9 10 11 10 11 11 10 10 10 9 9 9 9 9 9 9 10 12 13 13 13 13 13 12 12 12 12 12 13 14 15 15 14 16 17 18 18 19 19 18 19 20 20 20 20 20 21 21 22 22 22 23 23 23 24 24 25 25 26 26 26 28 26 23 26 27 26 29 31 32 33 32 32 32 29 29 30 28 26
0 2 2 5 5 4 1 1 2 5 3 2 4 6 5 6 7 8 9 9 10 11 11 11 11 11 10 8 8 8 8 9 9 9 10 11 12 12 12 12 11 11 10 10 10 11 12 14 16 16 15 16 17 18 18 18 19 18 19 20 20 21 21 21 22 22 23 23 23 23 23 24 25 24 24 25 26 26 25 28 27 23 26 27 25 29 32 33 33 32 33 32 30 30 31 28 25
3 2 4 5 7 5 2 1 1 3 2 2 5 8 7 5 4 7 10 10 10 11 12 11 10 10 9 8 9 10 9 9 9 10 11 11 12 11 11 11 10 10 10 10 11 11 12 14 17 16 15 16 17 18 17 17 18 18 19 20 20 21 21 22 22 22 23 24 23 24 24 25 25 24 25 25 26 26 25 27 26 24 26 25 25 32 36 36 34 34 34 32 30 30 31 31 27
7 4 4 4 3 2 1 1 2 1 3 1 3 7 6 3 4 8 11 11 11 11 11 11 10 10 9 9 10 11 10 8 9 9 9 10 11 10 10 11 10 10 11 12 13 14 13 14 17 17 16 16 16 16 16 16 17 18 19 20 21 21 21 22 23 23 24 24 24 24 24 25 25 25 26 26 26 26 25 27 26 24 25 25 29 37 39 37 36 35 34 32 31 30 30 33 29
8 5 4 4 2 1 1 3 1 2 1 1 0 3 4 4 6 11 13 12 12 12 11 10 10 10 9 9 9 9 8 7 8 8 8 9 10 10 11 12 12 11 11 11 13 15 14 14 17 17 17 16 15 15 16 16 17 18 19 21 21 22 22 22 24 24 24 24 24 24 24 25 25 25 26 26 27 27 26 27 26 23 25 27 34 39 38 37 36 35 34 33 32 31 29 31 30
3 4 3 1 1 2 1 2 1 2 2 1 2 2 3 3 5 9 12 12 12 13 12 10 10 10 10 9 8 8 7 8 9 8 8 9 9 9 10 11 11 11 11 11 12 14 14 13 15 16 16 16 15 16 16 17 18 19 20 22 22 22 23 23 24 24 23 24 24 24 24 25 25 26 26 26 27 27 27 27 25 25 27 31 37 39 38 39 36 34 35 33 32 32 29 30 32
4 4 2 1 1 2 1 1 3 2 2 1 2 4 2 1 2 6 10 12 12 13 12 10 10 11 10 9 9 8 8 8 8 8 9 9 8 8 9 9 10 11 11 11 11 12 13 13 14 14 15 15 15 16 16 17 19 20 21 22 22 22 23 22 23 24 23 24 25 24 25 25 25 26 26 26 27 27 27 27 24 25 28 33 38 38 39 43 38 33 34 33 33 33 29 31 34
Wind_Direction
282 287 287 283 272 269 265 259 260 247 245 250 113 92 3 54 309 271 320 2 26 29 35 52 51 56 65 77 90 77 51 42 39 40 86 79 53 46 59 55 49 46 48 59 55 46 36 43 48 40 43 41 45 46 45 50 53 54 49 49 47 47 47 43 40 40 34 25 21 20 23 18 13 14 17 21 25 36 41 57 67 60 54 57 74 83 86 87 86 83 89 99 122 137 150 155 157
289 292 287 270 250 257 270 254 260 260 253 285 83 88 130 99 43 294 324 353 312 42 57 52 56 72 82 82 83 80 55 46 65 85 108 110 81 56 73 62 55 60 58 59 53 46 39 44 48 43 47 48 50 48 47 50 55 60 56 54 51 52 50 46 46 48 40 28 29 30 29 26 22 20 20 24 26 41 39 42 54 45 49 70 82 88 91 85 86 90 98 112 137 148 157 160 167
299 302 293 273 242 240 263 261 262 267 266 275 77 91 94 73 114 245 272 169 96 46 61 56 51 58 69 65 55 67 70 49 62 91 99 103 95 18 52 65 64 66 60 58 56 48 44 46 50 52 55 56 57 53 52 54 59 62 60 59 56 57 54 51 50 51 46 35 34 35 36 30 26 24 21 25 30 39 39 43 48 46 60 82 92 88 86 84 83 90 101 110 133 152 164 165 171
297 296 288 285 264 240 251 257 261 276 290 51 72 58 64 354 342 288 289 39 31 44 60 66 56 48 58 62 63 66 65 48 51 78 93 83 90 37 44 66 71 70 65 58 58 55 50 50 55 61 62 62 61 59 60 63 63 60 61 60 55 57 56 53 53 54 51 43 38 36 37 32 27 24 22 25 29 39 44 56 59 68 81 88 100 94 87 97 104 108 117 124 142 166 190 187 183
285 278 268 271 277 271 271 269 273 300 332 55 96 112 112 50 336 298 303 51 33 43 58 79 80 71 64 48 46 50 35 45 54 63 86 84 87 74 62 70 76 80 71 63 64 59 50 49 58 63 64 66 63 63 63 65 65 59 59 61 58 58 60 54 51 50 47 46 42 37 33 31 33 27 26 27 20 36 51 70 76 84 97 99 108 115 124 139 161 169 173 176 192 218 232 225 218
272 267 258 253 259 292 280 285 325 37 35 53 110 159 142 141 206 255 352 57 48 52 55 74 102 99 81 51 52 47 24 41 58 55 72 85 84 87 85 79 75 80 74 70 73 66 56 50 55 59 63 65 66 68 62 62 64 62 63 63 60 58 68 58 47 44 40 41 39 38 32 29 33 30 28 28 22 39 54 82 105 109 113 121 134 146 161 169 181 203 221 230 240 241 251 250 247
266 267 258 248 237 252 259 7 14 26 40 46 109 143 130 171 216 117 38 59 65 65 57 65 104 99 91 95 73 50 42 56 71 54 61 82 85 88 90 80 65 71 73 70 74 70 64 57 57 58 59 62 63 68 64 63 62 64 65 61 58 58 68 58 48 44 37 36 34 34 31 27 28 27 28 29 29 37 49 76 117 136 148 163 176 178 189 197 200 218 242 256 265 262 266 264 261
263 267 272 269 256 244 271 55 42 21 16 11 27 339 97 192 250 88 81 93 80 73 69 68 93 87 77 87 88 61 48 57 79 74 70 77 80 84 88 87 78 78 77 65 66 66 61 59 60 58 57 60 61 65 65 64 63 64 63 62 62 60 61 54 46 42 37 32 27 27 24 23 22 23 25 22 24 23 27 62 104 144 185 216 218 211 213 221 232 247 266 270 271 272 274 271 268
253 251 255 264 283 23 336 25 62 47 13 347 347 350 28 336 279 75 69 62 67 69 59 55 77 89 92 89 93 84 51 51 80 80 71 72 72 77 81 85 89 86 81 70 63 60 57 55 57 57 57 61 62 62 65 68 67 63 64 69 69 64 59 51 43 37 34 26 20 21 16 16 16 17 19 14 9 5 0 355 335 310 292 282 272 268 261 259 272 276 282 283 282 280 278 276 273
248 242 250 263 309 39 336 353 51 47 49 323 292 6 53 291 9 63 56 60 64 73 71 63 77 99 108 96 93 81 49 55 76 72 62 67 69 74 80 78 79 77 73 70 61 59 59 54 56 57 57 63 63 60 65 70 66 59 58 62 62 59 50 41 38 31 25 20 18 17 12 13 12 10 12 12 4 354 347 337 324 314 303 299 296 288 284 283 287 290 293 291 293 292 287 282 278
263 239 235 281 322 311 285 55 74 61 87 267 272 57 76 337 18 55 55 68 66 70 79 70 78 96 95 84 84 72 65 67 64 67 59 63 70 75 80 76 79 80 64 59 61 65 63 52 56 60 59 57 53 55 65 67 63 57 48 46 45 39 31 27 26 24 22 18 18 16 11 11 9 8 5 3 0 351 344 333 319 311 302 300 299 294 291 291 292 292 294 294 295 295 293 291 289
272 274 296 331 316 317 358 63 110 108 84 276 295 19 60 30 36 57 48 58 65 62 56 60 126 115 91 79 75 89 67 60 57 63 59 58 68 71 72 75 85 83 59 53 67 69 58 47 56 62 57 51 44 44 54 64 62 53 46 41 35 29 27 28 27 24 22 18 18 17 11 10 9 8 3 354 350 346 342 337 325 313 304 300 297 295 295 294 295 292 292 294 296 297 295 294 295
256 292 51 332 313 11 67 92 137 115 94 290 308 14 52 48 38 46 47 49 50 58 45 52 146 124 87 96 77 87 60 51 54 59 60 59 72 75 72 78 84 83 65 49 58 62 58 53 56 54 49 49 52 49 44 49 55 47 46 43 38 38 36 34 33 28 25 24 23 21 16 10 5 2 1 353 346 342 340 335 330 324 315 308 300 295 295 295 296 294 292 293 294 295 294 295 295
266 293 106 172 353 46 97 144 147 113 128 269 288 8 50 49 38 38 47 53 40 50 52 41 105 108 86 114 85 62 51 44 52 63 68 63 82 83 76 80 73 73 70 48 45 52 53 54 50 51 53 53 64 63 49 46 54 55 53 50 46 42 40 36 34 32 29 28 27 24 16 7 357 350 354 353 349 345 343 336 327 324 318 311 305 299 295 294 293 292 292 289 289 290 292 293 293
330 341 29 47 21 34 14 31 50 61 134 213 275 31 54 48 48 51 49 60 42 36 55 39 57 101 74 98 84 57 51 43 48 66 69 58 73 76 73 81 68 66 71 53 48 50 49 53 50 51 53 46 56 63 58 55 55 58 56 49 46 40 38 32 28 29 22 22 24 18 14 12 4 355 355 355 353 347 345 341 329 324 319 312 306 302 299 296 293 290 290 288 288 288 289 290 291
31 22 38 51 32 28 338 358 39 32 98 108 45 54 67 55 52 64 56 67 65 46 55 47 52 84 74 70 77 60 53 46 53 67 66 52 57 63 63 66 54 58 65 57 53 51 50 51 46 46 43 40 57 60 58 57 48 49 46 35 34 36 35 25 19 16 9 16 19 13 8 12 8 1 4 2 357 350 344 339 332 331 325 321 315 310 307 302 297 293 291 290 290 291 291 292 293
44 25 17 45 46 41 298 351 63 106 79 69 61 73 96 74 58 73 73 74 77 64 63 64 66 80 81 69 55 48 49 47 60 69 67 69 68 64 62 57 49 53 58 59 58 48 47 45 42 55 56 56 66 64 59 52 38 36 35 25 18 21 26 20 14 3 358 9 11 7 359 4 4 356 5 5 355 346 342 335 329 331 328 325 325 322 320 313 306 300 299 298 298 298 298 298 297
46 16 14 40 108 137 214 57 86 128 84 81 89 107 98 74 74 81 79 73 77 76 71 74 75 80 90 88 59 49 48 47 54 61 65 68 70 63 62 62 61 75 75 69 65 48 48 48 49 66 71 67 68 64 58 45 25 22 22 7 354 0 14 7 4 2 5 9 6 359 350 0 354 338 359 1 344 334 333 331 321 319 320 321 324 325 327 322 315 309 309 306 304 304 303 302 303
63 64 32 265 139 117 135 90 99 105 87 98 99 91 76 58 67 75 73 66 64 68 65 69 73 75 89 94 78 68 63 57 54 56 67 68 64 60 62 64 66 80 77 73 66 49 51 57 57 67 66 58 57 51 45 32 12 11 10 1 354 354 1 351 350 3 10 7 7 2 356 1 336 329 358 353 328 321 322 325 321 311 306 317 320 322 326 324 319 317 315 309 305 303 302 301 300
80 121 147 235 72 92 109 98 81 73 84 96 83 78 77 67 65 84 86 71 58 57 53 56 65 64 74 81 76 75 73 71 64 60 77 83 81 77 74 68 68 72 68 74 69 51 49 58 56 54 49 35 35 38 25 21 17 16 14 7 6 0 1 356 352 3 4 2 8 7 4 357 333 336 349 336 320 322 323 324 327 315 301 312 315 319 327 323 317 317 317 311 305 300 293 286 283
128 133 118 99 74 77 93 101 91 80 93 89 82 85 80 72 60 66 82 74 60 55 49 50 62 62 65 71 69 70 69 71 72 65 77 87 92 90 86 79 80 77 70 77 76 65 56 58 54 38 36 28 23 28 19 24 23 22 21 9 8 5 4 5 4 8 357 1 12 3 2 356 342 346 336 330 328 327 329 329 332 326 315 318 317 320 325 318 312 311 311 308 307 302 290 281 281
141 79 59 74 81 75 74 95 109 118 111 90 85 84 76 71 58 56 64 69 61 55 56 54 63 68 66 67 66 66 65 71 76 70 69 76 83 87 87 83 81 76 76 84 80 76 70 58 51 30 27 29 27 26 21 26 24 19 17 11 12 5 3 8 10 9 354 3 10 360 4 0 345 343 337 336 331 326 332 332 334 333 328 324 320 322 319 313 310 309 305 304 309 306 298 292 291
99 75 64 67 70 79 74 84 100 102 90 84 88 89 86 83 71 64 65 69 65 61 65 61 68 76 73 68 62 62 64 72 76 73 73 74 82 91 94 91 86 83 85 90 86 82 70 43 37 31 24 27 28 25 23 27 26 20 15 16 14 7 10 12 9 4 353 358 7 2 3 358 348 344 344 340 333 332 334 332 333 333 331 327 322 322 318 313 314 313 307 305 308 305 300 295 294
71 80 72 71 68 73 78 79 83 84 85 86 92 92 82 80 79 73 72 72 69 67 69 69 77 81 76 70 59 58 65 75 84 88 89 87 93 100 100 94 87 91 94 92 89 78 59 40 31 34 32 28 23 22 26 27 24 19 17 18 15 13 14 9 5 4 0 1 9 8 0 357 354 353 352 346 339 341 337 332 333 332 333 330 327 325 321 319 317 316 313 309 303 299 296 286 290
71 86 80 81 78 74 79 81 76 77 84 86 85 82 75 77 80 75 74 73 69 70 72 73 83 84 78 75 59 58 70 79 91 98 96 95 103 100 88 89 88 88 89 85 81 67 50 43 37 35 32 25 21 23 28 26 23 17 15 21 21 16 8 5 6 8 10 11 10 6 2 360 356 356 355 349 346 342 336 337 337 336 336 332 329 328 325 325 323 320 317 309 301 300 295 281 287
77 87 85 80 78 78 80 81 78 74 78 85 84 83 82 87 85 72 72 78 78 74 76 79 86 86 85 87 74 72 78 78 90 99 98 95 96 95 85 83 84 77 71 66 63 59 48 42 39 34 29 24 20 24 24 18 19 17 15 20 20 13 7 9 12 9 12 11 5 2 360 356 353 355 351 348 348 339 336 343 341 336 333 331 333 332 331 331 327 322 313 306 310 316 309 293 286
82 82 85 79 78 83 81 80 84 81 76 78 77 77 78 80 79 74 78 86 88 80 75 77 81 82 84 91 93 89 80 79 90 94 94 93 88 93 90 72 68 66 62 57 52 48 44 39 36 30 25 23 19 19 19 14 11 12 13 15 15 11 8 11 13 9 6 2 357 360 1 354 351 351 347 347 345 338 340 344 341 337 330 331 337 333 330 331 327 320 314 314 318 312 302 295 291
92 94 94 83 76 77 77 77 86 86 81 78 76 78 73 66 69 87 105 97 88 86 73 68 69 73 79 79 80 80 79 84 94 96 89 82 79 80 73 63 68 70 59 52 47 42 39 35 30 27 22 19 19 15 12 12 7 5 8 10 9 6 4 7 9 5 360 358 351 351 1 359 350 348 346 347 343 339 339 337 337 335 332 337 338 330 329 332 328 323 323 324 318 309 301 296 297
101 106 93 75 63 78 85 86 105 102 89 78 72 71 63 61 77 94 111 105 90 87 74 64 57 58 73 75 71 69 73 79 84 90 90 81 75 72 63 53 61 71 63 49 44 41 36 32 26 23 21 17 18 14 7 7 4 0 3 5 5 2 360 1 6 359 350 359 357 350 359 359 351 348 345 343 341 338 334 329 331 331 331 339 334 328 332 332 328 328 330 328 324 322 320 309 302
65 83 95 83 64 91 91 79 121 100 80 43 42 64 51 60 93 103 113 117 105 90 84 77 62 52 62 72 82 77 73 74 72 74 82 83 77 71 65 51 46 54 55 47 43 44 35 29 27 17 18 18 12 11 6 2 0 357 357 0 359 359 358 354 359 358 350 357 358 352 358 357 350 348 345 344 342 338 333 329 330 330 331 335 331 329 331 327 324 328 332 331 327 326 323 312 302
43 74 141 125 97 102 99 127 231 89 95 87 72 82 50 58 104 121 122 116 109 99 100 97 82 61 42 65 89 88 83 83 82 76 74 80 79 72 65 54 50 46 41 39 35 35 30 24 24 18 18 17 9 9 4 357 357 354 354 358 355 356 357 356 357 355 355 1 355 346 350 347 342 339 338 340 338 336 334 330 331 332 333 333 329 327 325 323 322 322 327 331 327 322 318 313 307
36 93 209 314 100 98 106 151 203 87 113 108 78 91 97 78 103 120 118 101 100 101 104 109 107 95 60 64 81 84 96 94 88 84 78 75 72 68 63 53 52 45 37 38 29 24 25 20 19 20 18 17 14 11 3 356 358 357 356 360 359 359 359 0 1 355 355 2 354 344 343 341 340 338 335 334 330 329 329 325 325 326 331 333 329 325 322 320 319 317 320 327 325 319 315 313 315
195 137 168 197 130 101 88 76 61 82 107 88 80 94 100 89 88 101 107 102 105 108 111 115 110 101 85 73 81 83 95 98 95 88 82 78 70 65 62 51 48 44 37 35 29 23 25 17 14 19 17 17 18 13 4 2 6 5 2 2 5 9 7 8 13 7 3 1 355 352 349 345 343 341 341 338 332 329 328 322 318 316 321 326 327 327 324 319 318 318 318 321 320 316 313 310 311
167 124 79 115 108 106 106 62 57 85 94 86 92 93 83 82 82 89 99 103 110 114 116 120 110 106 103 81 83 79 58 74 73 62 54 55 60 54 53 50 47 48 39 28 26 26 26 18 16 21 19 18 17 10 6 9 12 11 7 7 13 16 14 17 18 14 13 9 2 360 354 350 352 350 347 346 342 336 334 329 321 318 318 319 320 322 322 321 321 322 322 321 319 314 312 308 302
201 135 130 119 111 112 104 99 91 94 95 92 88 87 85 81 74 72 79 90 101 108 106 110 106 102 101 90 66 30 64 65 60 59 45 39 45 37 43 51 45 44 39 28 25 28 26 20 23 27 23 18 14 11 10 10 13 13 10 12 20 22 22 25 22 19 24 21 13 10 3 359 3 2 355 354 353 348 346 342 332 325 321 320 318 316 318 318 316 317 321 321 319 314 310 306 298
239 126 123 124 115 99 94 117 128 87 84 94 90 85 88 81 71 64 65 79 92 102 102 97 95 91 89 95 78 46 72 72 67 70 58 51 49 33 37 49 43 36 35 30 27 30 27 22 27 29 26 21 15 19 22 20 21 22 22 23 29 33 33 33 28 26 29 25 19 16 12 10 10 7 2 0 359 353 348 345 342 338 334 331 324 318 314 313 309 310 313 315 314 313 309 305 304
226 88 105 107 106 105 113 133 124 87 74 90 98 92 86 82 83 80 70 76 87 95 100 96 95 97 94 98 97 81 79 70 61 63 57 55 50 37 38 43 43 40 34 29 29 31 24 21 30 33 33 30 26 29 29 27 28 28 30 30 33 36 33 30 27 24 23 22 18 13 10 10 9 4 2 2 358 353 348 344 345 345 346 343 337 329 320 314 309 305 306 307 306 306 303 302 308
154 109 103 103 104 104 113 112 97 104 109 101 97 95 93 87 91 97 95 90 91 93 97 102 103 103 101 94 88 77 72 66 58 58 55 53 50 45 46 43 40 39 31 28 31 33 30 34 44 45 42 39 38 37 31 28 28 25 24 24 28 31 27 25 23 19 16 17 16 11 6 5 5 3 359 358 354 352 351 349 345 341 340 340 338 337 333 327 319 310 305 302 300 299 296 293 300
140 111 100 98 97 93 104 98 81 86 111 115 109 99 99 98 96 102 104 95 92 94 98 106 108 104 103 95 84 78 78 80 74 69 62 58 60 59 57 47 39 43 44 42 42 42 46 51 53 50 46 42 40 38 33 30 27 23 21 18 20 22 23 22 19 15 12 11 12 9 6 2 1 3 359 355 353 350 349 350 348 342 338 336 333 332 332 331 326 319 310 301 299 298 294 290 289
81 92 96 102 117 116 113 103 107 173 123 115 113 99 96 105 104 96 93 95 93 93 94 98 100 99 102 101 98 99 98 99 101 96 89 83 75 64 59 52 50 55 56 54 53 53 55 55 52 49 46 43 39 36 34 32 28 26 24 21 20 19 20 18 14 13 9 6 7 5 3 360 357 0 359 355 353 350 349 350 348 345 342 340 337 333 331 329 325 322 314 300 294 295 293 290 286
104 109 107 136 153 148 119 115 144 180 132 119 112 97 91 97 102 97 96 103 97 94 96 94 94 96 98 97 96 98 96 95 96 94 95 95 86 77 73 67 65 64 58 57 58 58 58 57 54 51 47 44 39 35 32 30 28 26 22 20 18 14 13 13 10 11 7 1 2 1 358 356 355 356 355 354 353 350 351 351 349 346 344 343 342 339 337 334 330 327 324 309 294 292 290 289 289
110 120 146 161 152 138 120 121 137 148 132 162 178 88 96 97 101 106 109 108 99 98 100 97 98 98 97 98 97 100 100 96 94 91 91 91 88 86 84 78 75 72 65 63 62 61 60 57 54 50 46 43 38 34 30 27 26 24 20 16 12 7 5 8 6 5 4 357 355 359 355 353 354 352 351 352 352 351 352 351 349 348 347 345 343 342 340 338 335 332 331 322 306 299 294 288 290
87 147 168 162 131 123 121 118 121 150 170 176 254 18 105 108 106 114 117 108 100 98 97 97 99 96 96 101 101 103 103 95 92 94 93 91 88 85 85 82 78 75 70 66 62 59 57 54 52 49 46 43 38 34 30 27 24 21 18 12 8 5 359 2 2 0 2 354 351 357 355 352 354 353 352 351 351 350 352 351 350 349 348 345 344 343 340 338 337 334 332 327 319 317 309 291 287
100 141 159 157 126 122 131 129 133 212 201 123 129 131 116 113 112 117 117 108 106 104 99 98 101 102 102 101 101 103 104 101 96 94 91 89 87 85 84 81 76 74 69 65 62 58 54 52 51 49 48 44 39 35 30 27 22 16 14 7 5 5 360 0 360 357 359 354 351 357 355 352 353 353 353 353 350 350 352 351 350 349 348 346 345 343 342 340 339 338 337 335 331 330 322 302 288
116 132 153 149 125 120 126 135 129 103 341 123 126 116 98 106 118 120 118 113 114 113 110 109 107 110 111 106 105 103 101 101 98 95 91 88 85 81 79 77 73 72 69 65 63 61 57 54 51 48 46 44 40 35 28 25 20 14 12 7 4 4 1 0 358 356 357 354 353 356 354 351 352 354 354 354 352 350 352 355 354 351 349 348 348 347 346 345 342 341 342 342 338 332 327 316 300
133 124 105 78 75 85 89 107 116 117 223 159 129 139 131 113 129 149 137 122 120 118 118 116 110 110 113 115 115 110 105 104 99 96 94 89 84 80 78 77 75 71 70 66 63 63 62 57 51 47 44 41 37 31 25 22 19 15 12 8 5 2 2 0 357 358 358 355 355 354 352 352 353 353 351 352 354 351 354 358 355 352 352 352 353 351 349 347 345 345 345 344 341 336 330 323 315
163 72 62 50 34 26 37 39 50 68 235 158 140 160 157 121 143 160 134 123 125 125 126 123 122 123 119 119 117 111 107 103 99 96 93 91 87 84 80 77 75 72 68 65 59 59 61 58 53 48 42 35 31 25 21 19 18 17 12 8 6 2 2 0 357 359 358 355 355 353 351 353 354 353 349 351 356 353 355 359 353 351 355 357 357 355 352 349 346 346 346 343 340 339 333 325 322
103 71 75 67 26 349 19 47 42 38 223 155 134 128 95 112 146 133 126 132 133 132 134 131 129 128 122 119 114 111 108 102 99 97 94 93 89 85 79 72 68 64 63 62 57 56 56 52 50 46 39 31 25 21 20 17 15 16 11 8 7 3 2 1 358 359 357 353 352 350 351 354 354 352 349 351 355 353 355 357 351 353 1 2 1 357 353 352 349 346 346 343 339 337 335 329 323
108 97 104 94 174 268 106 132 92 119 222 174 132 118 92 93 113 126 130 131 135 136 136 133 131 128 121 117 112 107 104 98 97 96 94 92 87 81 77 71 63 55 53 56 55 53 51 45 41 39 35 29 23 20 21 18 14 15 12 7 6 3 2 1 358 357 354 351 350 350 353 355 354 353 350 349 353 355 357 355 351 358 5 3 2 359 355 355 352 347 344 342 340 338 336 334 329
114 116 124 127 194 200 103 177 123 125 224 178 130 126 107 93 112 136 130 125 131 130 127 131 133 130 123 119 115 106 100 98 99 99 94 88 84 80 76 72 65 56 51 51 51 49 47 42 35 33 31 28 22 19 20 18 15 14 12 10 7 5 4 2 359 357 353 352 353 354 356 356 355 352 348 348 352 354 355 353 352 1 6 2 2 1 358 357 354 350 346 342 341 342 339 336 333
102 140 174 189 202 195 44 269 102 110 203 159 128 130 114 119 141 141 131 131 134 130 127 129 129 125 121 115 110 105 102 101 98 95 92 87 83 78 75 74 71 64 56 52 50 46 43 39 31 30 30 27 22 19 19 18 16 15 13 11 9 7 6 4 1 359 357 356 358 357 357 357 355 351 349 349 351 351 352 351 352 2 7 3 2 2 359 358 356 353 350 345 344 347 344 338 333
88 160 188 201 203 195 195 4 55 91 124 167 124 112 109 130 139 134 136 137 133 131 132 134 133 126 119 114 113 111 107 103 99 97 93 89 85 77 72 72 73 72 68 62 56 48 42 35 28 28 30 28 23 19 20 19 16 14 13 11 10 9 8 5 2 1 0 359 359 358 357 356 354 351 351 351 350 350 352 352 352 1 8 6 4 3 359 357 356 354 351 347 345 345 344 338 332
5 330 233 254 259 235 233 322 54 81 114 166 122 117 128 132 134 143 148 142 139 140 140 140 136 127 123 123 119 111 103 99 96 93 88 85 83 81 79 75 71 72 72 71 69 58 49 40 29 25 27 29 27 22 20 19 16 14 13 11 11 10 8 6 3 1 0 359 359 358 356 354 352 352 352 351 350 351 353 354 353 360 9 10 9 6 2 358 356 354 351 347 343 341 341 338 330
180 211 211 254 280 283 323 312 235 95 121 183 137 137 145 136 146 162 157 155 157 151 146 144 136 132 132 124 115 108 103 102 99 95 90 86 82 79 82 82 78 77 72 68 65 55 53 50 36 24 25 31 31 24 18 18 17 14 12 10 9 8 6 4 2 0 359 359 357 356 355 353 351 352 351 350 351 351 354 355 353 0 10 11 9 5 2 1 357 354 351 347 343 340 340 339 333
203 231 213 215 263 302 37 342 294 88 116 157 119 128 138 162 177 165 166 173 166 153 150 148 142 140 133 120 117 116 115 114 107 101 93 86 84 79 78 78 75 73 67 60 53 42 43 52 42 25 24 32 33 27 20 17 16 13 10 8 6 5 3 2 1 359 357 357 355 353 353 352 351 352 352 351 352 351 354 354 353 4 14 10 6 4 1 360 357 354 351 348 345 342 340 341 338
203 242 239 201 172 112 161 212 271 343 135 155 137 128 146 190 191 172 172 174 163 156 157 153 145 143 136 130 126 120 122 121 107 101 94 88 89 82 70 64 60 60 58 54 49 39 33 42 43 28 21 26 31 30 24 17 13 10 8 6 4 3 1 0 359 358 356 356 353 351 351 351 352 353 352 353 354 352 354 353 355 11 19 10 7 6 3 359 354 351 349 346 345 344 340 340 339
213 255 268 224 103 63 261 217 90 354 309 129 155 173 155 174 192 179 166 162 164 162 158 154 147 146 141 135 130 122 117 109 100 101 102 99 97 85 72 63 56 52 52 52 50 42 32 34 40 32 21 19 24 26 23 17 11 8 6 4 2 1 0 359 358 357 356 354 353 353 352 352 354 355 355 356 355 354 354 354 2 20 22 15 12 9 5 0 354 349 346 344 345 344 340 340 339
232 257 274 308 33 61 286 301 63 56 299 316 155 146 141 182 194 174 156 156 168 162 154 152 148 149 144 131 126 120 109 102 103 103 98 94 90 84 81 78 69 56 48 50 51 46 36 30 34 34 24 18 19 20 18 15 10 7 6 4 2 2 359 358 357 357 356 354 354 355 354 355 356 357 358 359 356 357 357 356 10 27 24 19 15 9 4 2 357 350 345 344 349 348 342 344 344
Height
766 767 764 766 764 764 762 761 778 772 769 787 795 807 808 798 800 796 785 782 784 778 770 772 777 782 788 795 799 801 804 807 811 814 825 825 817 817 813 815 815 814 814 813 812 811 810 808 806 804 803 802 801 801 801 801 801 800 800 799 798 798 798 798 798 798 797 796 796 795 795 794 794 793 793 792 792 792 791 790 790 790 790 789 789 789 788 788 788 788 788 789 788 788 788 788 788
766 767 763 765 761 766 763 758 781 778 778 797 794 807 810 796 799 799 789 785 785 776 771 775 781 786 789 790 790 796 805 807 807 811 818 818 815 812 810 814 814 814 814 813 813 812 811 809 807 806 804 803 801 802 801 801 801 801 800 799 799 799 798 798 798 798 798 797 796 796 796 795 794 794 793 793 792 792 791 791 791 790 790 789 789 789 788 788 788 788 788 789 788 789 789 789 789
767 767 763 763 757 760 761 761 778 780 787 800 798 800 800 800 800 794 786 781 778 775 779 780 783 787 789 794 794 799 809 808 807 810 813 815 813 809 810 813 813 814 814 814 814 813 812 810 809 807 805 804 803 802 802 802 802 801 801 800 800 799 799 799 799 799 798 798 797 797 796 795 795 794 794 794 793 792 792 792 791 791 790 790 790 789 789 789 789 789 789 789 789 789 789 789 790
766 766 764 761 759 759 763 770 773 776 787 795 806 801 796 807 801 794 786 779 778 781 789 787 790 790 791 802 801 802 808 808 808 809 812 815 814 812 812 813 813 813 813 814 814 814 813 812 811 809 807 805 804 804 803 803 802 802 801 801 801 800 800 800 799 799 799 798 798 797 796 796 795 795 795 794 794 793 793 792 792 792 791 791 790 790 790 790 790 790 790 790 790 790 790 790 790
766 766 763 761 766 764 763 771 767 777 791 794 812 805 795 807 806 804 790 782 785 786 791 789 795 794 793 802 801 806 810 808 808 809 812 815 815 814 814 813 813 812 813 813 813 814 813 813 812 810 808 806 806 805 804 804 803 803 802 802 801 801 801 800 800 800 799 799 798 798 797 796 796 796 795 795 794 793 794 793 793 793 792 792 792 791 791 791 791 791 791 790 791 790 790 791 791
765 763 759 756 759 758 766 777 775 784 790 787 804 802 795 804 807 805 789 786 793 791 789 788 795 795 801 805 803 809 810 808 809 810 812 814 815 814 814 813 813 813 813 812 813 813 813 813 812 811 809 808 807 806 805 805 804 804 803 803 802 802 801 801 800 800 800 799 799 798 797 797 797 796 796 795 795 794 794 794 794 794 793 793 793 792 792 792 791 791 791 791 791 791 791 791 791
763 762 757 758 756 757 773 785 788 793 791 785 796 798 796 802 803 804 796 794 800 795 791 790 791 797 808 808 807 811 809 810 810 811 813 813 815 814 814 813 813 813 813 813 812 812 812 813 813 812 811 810 809 808 807 806 806 805 805 804 803 803 802 802 801 801 800 800 799 799 798 798 797 797 796 796 795 795 795 795 794 794 794 794 793 793 792 792 792 792 791 792 792 791 792 792 792
761 762 757 763 766 764 774 785 798 803 798 792 793 793 795 802 799 799 798 795 800 797 793 792 789 802 812 806 812 814 810 812 811 813 814 814 815 814 814 813 813 812 813 813 813 812 812 813 813 813 812 811 810 809 808 807 807 806 806 805 805 804 803 803 802 801 801 800 800 800 799 799 799 798 797 797 796 796 796 795 795 795 794 794 794 793 793 793 792 792 792 792 792 792 792 792 793
756 759 758 765 772 777 783 788 801 807 805 802 799 797 801 806 794 791 797 795 797 797 796 793 790 804 812 808 814 813 810 813 812 814 814 815 815 814 814 813 813 813 814 815 814 814 813 813 813 814 813 813 812 811 810 809 809 808 807 806 806 805 804 804 803 803 802 801 801 801 800 800 800 799 798 798 797 797 797 796 796 796 795 795 794 794 793 793 792 792 792 792 792 793 793 793 794
755 756 761 767 773 789 796 792 804 814 813 813 808 800 807 807 789 789 799 798 796 798 798 793 794 802 808 811 814 813 813 813 812 815 814 815 815 815 815 814 815 814 815 816 816 815 814 814 814 815 814 814 814 813 812 811 810 809 809 808 807 807 806 805 804 804 802 802 802 802 801 801 801 800 799 798 798 798 797 797 797 796 796 795 795 794 794 793 793 793 793 793 793 794 794 794 794
762 756 754 771 783 792 798 799 813 819 817 821 812 797 804 802 789 792 796 797 795 797 798 795 800 803 807 813 815 815 813 813 814 816 816 816 816 816 816 816 816 815 816 817 817 816 815 816 816 816 816 817 816 814 813 812 811 810 810 809 809 808 807 806 805 804 803 803 803 802 802 801 801 800 800 799 799 798 798 797 797 797 796 796 795 795 794 794 794 793 794 794 794 794 794 795 795
769 761 757 781 788 788 798 808 815 816 816 821 811 793 796 795 792 796 796 798 796 798 799 796 801 802 810 816 815 815 813 815 816 816 818 817 817 816 817 817 817 817 818 818 816 816 816 818 818 819 819 819 817 815 814 813 812 811 811 810 810 809 808 807 806 805 804 804 803 803 803 802 801 800 800 799 798 798 797 797 796 797 796 796 795 795 794 794 794 794 794 794 794 795 795 795 795
766 765 772 789 785 792 808 810 809 813 816 813 806 792 789 793 794 796 797 799 797 801 801 796 799 800 812 818 815 815 814 816 816 817 818 818 817 816 817 817 818 819 820 819 816 816 818 819 820 821 821 818 816 814 814 813 813 812 812 811 811 810 809 808 807 806 805 804 804 804 803 802 801 800 799 798 798 798 797 797 796 796 796 795 795 794 794 794 794 794 794 794 794 794 794 795 794
758 758 772 789 786 797 808 808 810 814 816 807 800 793 789 795 794 793 797 803 803 801 799 796 796 802 813 818 817 816 815 817 817 817 818 818 817 816 818 819 820 821 822 821 819 819 820 820 820 820 819 817 815 814 814 813 813 812 812 812 811 811 810 809 808 807 806 805 805 804 803 802 801 800 799 799 798 798 797 797 796 796 795 795 795 794 794 794 794 794 794 794 794 794 794 794 794
753 756 770 790 793 801 804 806 813 813 812 804 796 792 793 795 792 794 796 803 807 798 796 797 795 805 814 817 820 817 816 817 816 817 818 818 817 817 819 820 822 822 823 821 821 822 821 820 819 819 817 816 816 815 815 814 814 813 812 812 812 811 810 809 809 808 807 806 805 804 803 802 801 800 800 799 798 798 797 797 796 796 795 795 794 794 793 793 793 793 793 793 792 793 792 793 793
751 762 779 796 800 812 815 805 810 814 807 800 795 793 798 798 791 796 795 797 806 800 800 804 801 808 814 815 818 816 816 817 817 818 818 819 819 820 821 821 823 823 823 822 823 822 820 820 819 819 817 817 817 817 816 814 814 813 812 812 812 811 810 810 809 808 807 807 806 804 803 802 801 801 800 799 799 798 797 797 796 795 795 794 794 794 793 793 793 792 792 791 791 791 791 791 791
753 769 786 799 806 818 819 805 810 815 805 801 801 797 803 803 794 794 794 795 804 806 806 809 808 811 814 815 817 817 817 817 818 819 820 822 821 821 822 822 823 824 825 824 824 823 821 821 820 820 818 818 818 817 817 815 815 813 813 812 812 812 810 810 809 809 808 807 806 804 803 802 801 800 800 799 799 798 798 797 796 796 795 794 794 793 793 792 792 792 791 791 790 790 790 790 790
764 784 796 806 810 812 809 801 803 804 802 805 803 798 801 803 797 794 796 801 804 807 809 811 812 813 817 818 818 818 818 817 818 820 822 823 822 821 822 822 824 825 826 827 826 823 822 822 821 820 819 819 819 818 817 815 815 814 813 813 812 812 811 811 809 809 808 807 806 805 803 802 801 800 800 799 798 798 798 797 797 796 795 794 794 793 792 792 791 791 790 790 790 790 790 790 790
776 792 804 807 800 798 796 793 795 798 803 803 799 797 798 800 798 796 803 809 808 811 814 813 815 816 818 820 820 820 819 820 821 823 823 824 823 822 823 823 823 824 826 827 825 823 822 821 821 820 820 819 819 818 817 816 816 815 814 814 813 813 812 811 810 809 808 807 807 806 805 803 802 801 800 799 800 799 799 798 797 796 795 794 794 793 792 791 791 790 790 789 789 789 789 789 789
781 791 804 802 786 789 790 791 795 796 800 799 799 799 799 800 798 799 807 813 813 817 819 816 819 820 820 822 821 822 822 823 826 826 825 825 824 824 825 825 825 825 826 826 824 822 821 821 821 821 820 820 819 818 818 817 816 816 815 815 814 813 812 811 810 810 809 808 808 807 806 805 804 803 802 802 802 801 800 799 798 796 796 795 794 793 792 791 790 790 789 789 789 788 788 788 787
783 786 794 789 781 789 787 790 798 796 797 798 800 801 802 801 799 801 806 815 821 821 820 819 822 822 822 823 822 823 823 826 828 827 825 825 825 825 825 825 825 824 824 825 824 822 821 821 821 821 821 820 820 819 818 818 817 816 816 815 814 813 813 812 811 811 810 809 809 808 807 807 806 805 804 804 803 802 801 800 798 797 796 795 794 793 793 791 790 790 789 789 788 788 787 787 786
780 781 781 780 782 791 786 788 798 795 794 797 801 803 804 803 803 807 809 819 825 822 821 819 821 822 823 824 823 824 825 826 827 826 825 824 824 825 824 824 823 823 824 824 824 823 823 822 822 822 822 821 821 820 819 819 818 817 816 816 815 814 813 812 812 811 810 810 809 809 808 808 807 806 805 804 804 803 802 801 799 799 797 797 796 795 794 792 791 790 789 788 788 787 786 785 785
780 783 778 779 782 788 788 788 793 792 796 801 803 803 803 807 811 812 814 821 823 820 820 819 821 822 822 823 824 825 826 827 826 825 825 824 824 824 824 824 823 824 824 824 825 825 825 824 824 823 823 822 821 821 820 819 819 818 817 816 816 815 814 813 813 812 811 810 810 809 809 808 808 807 806 805 804 803 802 801 800 799 798 798 796 796 794 793 792 791 789 788 787 787 786 785 783
782 789 784 783 784 786 788 788 791 792 799 802 800 802 805 810 815 815 818 821 820 819 819 820 822 822 822 823 824 825 826 827 826 826 827 825 825 825 825 825 824 825 825 826 826 826 826 826 825 824 824 823 822 822 821 820 820 819 818 817 816 815 814 814 813 812 812 811 810 810 810 809 808 807 807 806 805 804 803 802 801 800 799 798 797 796 794 793 792 791 790 789 787 786 785 784 783
784 789 786 785 787 789 789 790 794 795 798 800 801 805 808 810 814 817 821 822 820 820 821 822 823 823 823 824 825 826 826 827 827 827 828 827 826 826 826 826 826 826 826 827 827 827 827 827 826 826 825 824 823 823 822 821 821 819 818 817 817 816 815 814 814 813 813 812 811 811 810 809 808 808 807 806 805 804 803 802 801 800 799 798 797 796 794 793 792 791 790 789 787 786 785 784 783
786 786 787 788 791 791 791 794 797 798 799 801 805 810 810 809 813 822 824 823 823 821 823 824 823 825 825 825 827 826 826 827 828 828 828 827 827 827 827 828 828 828 829 829 829 829 829 828 828 827 826 825 825 824 823 822 821 820 819 818 818 817 816 815 815 814 814 813 812 812 811 810 809 808 807 806 805 804 802 802 801 800 799 798 796 796 794 793 792 791 789 788 787 787 785 784 782
784 785 789 791 795 792 793 798 799 801 802 803 809 814 813 809 815 829 829 824 824 824 825 825 825 826 826 826 827 826 827 828 829 829 829 829 829 829 829 830 831 831 831 831 830 830 830 829 829 828 828 827 826 825 824 823 822 821 820 819 819 818 817 816 816 815 815 814 813 812 811 810 809 808 807 806 805 803 802 801 800 799 798 797 796 795 794 793 792 791 789 788 787 786 785 784 783
785 789 793 795 796 796 798 802 803 804 806 805 809 816 816 813 820 830 830 826 825 826 828 827 827 828 827 827 827 827 828 829 830 831 831 831 831 831 831 832 832 832 832 832 832 832 831 830 830 829 829 828 827 826 825 824 823 822 821 820 819 819 818 817 817 816 815 814 813 812 811 810 810 809 808 806 805 804 802 801 800 799 797 796 796 795 794 793 791 790 789 788 787 785 784 783 783
787 790 801 807 803 804 806 805 804 805 809 806 807 823 828 824 826 828 826 827 826 827 829 830 830 829 829 828 828 828 828 829 831 831 832 832 832 833 833 833 833 833 833 833 833 833 832 831 831 830 830 829 828 827 826 825 824 823 822 821 820 819 819 818 817 817 815 815 814 813 812 811 810 809 808 807 806 805 803 801 800 798 797 796 795 794 793 792 791 790 789 788 786 785 783 783 782
795 797 806 816 817 815 809 807 805 805 811 806 810 838 846 832 828 827 824 827 828 830 832 832 833 832 831 830 830 830 830 830 831 831 833 833 834 834 834 835 834 834 834 834 834 833 833 832 832 831 830 830 828 828 826 825 824 823 822 822 821 820 820 819 818 817 816 815 814 814 812 811 811 810 809 808 806 805 803 801 800 798 797 795 795 794 793 792 790 789 788 787 786 785 784 782 781
805 810 810 815 827 826 813 810 809 809 812 806 814 844 849 833 828 828 825 826 830 833 834 834 836 834 833 832 831 832 831 832 832 832 833 833 835 835 835 836 836 836 836 835 835 835 834 833 832 832 831 830 829 828 826 825 824 823 823 822 822 821 820 819 818 818 817 816 815 814 813 812 811 810 809 808 806 805 803 801 800 798 797 795 794 794 793 791 790 789 788 787 786 785 784 782 781
811 821 829 825 826 826 816 810 808 812 812 805 817 841 844 831 826 826 826 828 830 834 836 835 836 836 835 833 833 833 832 833 833 834 835 835 836 836 837 838 837 838 838 838 837 836 835 833 833 832 831 830 829 828 827 826 824 824 824 823 823 822 820 819 818 818 817 816 816 814 814 813 811 810 809 808 806 804 803 801 799 798 796 795 794 793 793 791 790 789 788 787 786 785 783 781 780
815 826 847 837 824 827 823 813 806 809 812 810 820 835 838 830 824 824 827 829 831 835 837 836 836 836 835 835 835 835 834 833 834 835 836 836 837 838 838 839 839 840 839 837 836 835 834 833 833 832 831 830 829 828 827 826 825 824 824 824 823 822 821 820 819 819 818 817 816 815 814 813 811 810 809 808 806 804 803 801 799 797 796 795 794 793 792 792 790 789 787 787 786 785 783 781 780
822 830 851 836 823 832 830 821 812 808 815 819 822 829 833 830 825 825 825 828 832 835 838 836 836 836 835 835 836 836 836 836 837 839 839 839 840 839 839 839 839 839 838 836 835 835 834 834 834 833 832 831 830 829 828 827 826 825 825 824 823 822 822 821 820 819 819 818 817 816 814 813 811 810 808 807 805 804 802 800 799 797 796 794 793 792 791 791 790 789 787 786 785 784 782 781 779
823 831 851 842 829 831 828 828 820 813 820 826 829 832 834 832 827 826 825 827 832 835 837 836 835 836 836 837 836 837 840 840 842 843 842 841 842 842 840 840 839 838 837 836 836 836 835 834 835 834 833 832 832 831 829 828 827 826 825 824 823 823 822 822 821 820 819 818 818 816 815 813 812 810 808 806 805 803 802 800 798 796 795 793 792 791 790 789 789 788 787 785 784 783 782 780 778
814 814 831 833 830 830 827 827 821 818 827 831 835 838 837 836 833 831 829 829 832 835 836 836 837 837 837 838 838 840 842 842 842 843 842 841 841 842 842 841 840 839 837 837 838 837 836 836 836 835 834 833 833 832 830 829 828 826 826 825 824 823 823 823 822 821 820 819 818 817 815 813 812 810 809 807 805 804 802 800 798 795 794 792 791 790 789 788 787 786 785 784 782 781 780 779 777
809 811 819 819 825 831 827 824 822 824 835 837 835 838 839 838 836 834 833 832 833 837 838 838 839 839 838 839 839 840 841 841 842 842 842 842 842 842 843 842 842 841 840 840 840 839 839 839 838 837 836 835 834 833 831 830 829 828 827 827 826 824 825 824 823 822 821 820 819 818 816 814 812 811 810 808 806 805 803 801 798 796 794 792 791 789 788 786 785 784 783 782 781 779 778 777 776
812 819 823 820 822 826 822 821 823 824 836 841 836 839 843 839 837 837 835 835 836 837 839 840 840 840 840 839 839 840 841 841 842 842 842 843 843 843 843 843 843 843 843 843 842 842 841 841 840 839 838 837 836 834 833 832 831 830 829 828 827 826 826 825 824 823 822 821 820 819 817 816 814 813 811 809 808 806 804 802 799 797 795 793 791 789 788 786 784 783 782 780 779 777 775 774 774
810 814 820 825 822 824 823 822 823 820 831 842 837 840 845 839 837 838 835 835 836 835 836 838 839 840 840 841 842 843 844 845 844 842 844 844 844 845 844 845 846 846 846 844 844 844 843 842 841 841 840 839 838 837 836 835 833 832 831 830 829 828 827 826 825 824 824 822 821 820 819 817 815 814 813 811 809 807 805 803 801 799 797 794 792 790 788 786 784 782 781 779 777 775 773 771 772
808 811 823 831 824 827 832 830 830 824 825 833 833 839 846 842 840 840 836 835 834 834 835 835 836 838 840 841 842 843 844 845 844 843 844 846 846 845 846 847 847 847 846 845 845 845 844 844 843 842 842 842 840 839 838 837 836 834 832 831 830 829 828 827 826 825 824 823 821 820 819 818 816 815 813 812 810 808 806 804 802 800 797 796 793 791 789 787 785 783 781 780 777 775 772 769 769
808 810 822 831 825 822 827 832 832 825 824 828 833 846 853 848 848 846 838 835 836 835 836 836 836 837 839 840 841 842 842 842 843 844 845 846 846 846 847 848 847 847 846 847 847 846 846 845 845 845 844 843 842 841 840 838 837 835 833 832 831 830 829 827 826 825 824 823 822 821 820 818 817 815 814 812 811 809 807 805 803 800 798 796 794 792 790 788 785 783 782 780 777 774 773 770 767
811 811 813 820 820 815 818 828 833 839 843 831 831 856 864 851 849 849 841 838 839 837 837 839 839 838 840 842 843 843 843 842 842 844 845 846 847 848 848 848 848 847 848 848 848 847 847 847 846 846 845 844 843 842 841 840 838 837 835 833 832 831 829 828 827 826 825 825 823 822 821 820 818 816 815 813 811 809 807 805 803 801 799 797 795 793 791 789 786 784 782 780 776 774 773 771 768
819 816 809 809 811 814 819 827 838 852 852 830 824 852 866 857 852 848 842 842 842 839 839 840 839 840 841 842 843 843 843 844 844 844 845 847 847 848 848 848 849 849 849 849 849 848 848 848 848 847 847 846 845 844 843 842 840 839 838 836 834 833 831 830 829 828 827 826 824 823 822 820 819 817 816 814 812 810 808 806 804 802 800 798 796 794 792 789 787 785 783 780 777 775 773 772 769
815 806 805 809 809 815 820 825 836 839 835 828 825 837 857 863 855 844 840 844 846 843 842 842 841 842 843 842 843 843 844 844 845 845 846 847 848 848 848 849 849 850 850 850 850 850 850 850 850 849 849 848 847 846 845 844 842 841 840 838 836 835 833 832 830 829 828 827 825 824 822 821 819 818 816 815 812 810 808 806 804 803 801 799 797 795 792 790 788 785 783 780 778 775 773 772 770
802 792 797 802 805 812 816 822 832 831 835 843 833 830 854 865 851 840 840 845 850 848 845 843 842 842 843 844 844 843 843 844 844 846 846 847 848 849 849 850 850 851 851 851 851 851 851 851 851 850 850 849 848 848 847 846 844 843 841 840 838 836 835 833 832 830 829 827 826 824 823 821 820 818 817 815 813 811 809 807 805 803 801 799 797 795 793 791 788 785 782 779 777 775 773 772 770
792 786 795 805 810 814 817 824 831 836 847 851 838 834 854 866 853 843 846 848 850 849 844 842 842 842 842 843 843 842 842 843 844 845 847 848 849 850 850 851 852 852 852 852 852 852 852 852 852 852 851 850 850 849 848 847 846 844 843 841 839 838 836 835 833 831 830 828 826 825 823 821 820 818 816 815 813 811 809 808 806 804 802 800 798 796 793 790 787 785 782 779 776 774 771 770 770
789 795 813 828 831 827 829 834 839 853 857 844 833 829 840 860 856 843 844 845 843 845 845 843 842 842 842 840 840 841 841 842 843 845 847 849 850 850 851 852 852 853 853 853 853 852 853 853 853 853 852 852 851 850 849 848 847 846 844 843 841 839 837 836 834 832 830 829 827 825 823 822 820 819 816 815 813 811 810 808 806 804 803 800 798 796 794 791 788 785 782 779 776 773 771 768 766
794 812 827 840 850 849 849 852 856 870 864 837 825 822 832 857 856 838 837 836 835 841 843 843 842 840 840 839 838 839 840 841 843 845 847 849 850 851 851 852 853 853 853 853 854 853 853 854 854 853 853 852 852 851 850 849 848 847 845 844 842 840 838 837 835 833 832 830 828 826 824 822 821 819 817 815 813 812 810 808 806 804 802 800 799 796 794 791 788 785 782 779 775 772 770 767 764
798 816 829 845 862 863 859 860 862 868 857 830 821 827 838 851 845 832 833 831 832 835 836 839 841 839 839 839 839 839 840 842 844 846 848 849 850 851 852 853 853 854 854 854 855 855 855 855 855 854 854 853 852 851 850 850 848 847 846 844 843 841 839 838 836 834 833 831 829 827 824 823 821 819 817 815 814 812 810 808 806 804 802 800 799 797 794 791 788 785 782 779 775 772 770 767 764
800 813 827 844 857 863 864 857 856 861 850 822 812 828 847 852 841 830 830 830 830 830 831 835 836 837 839 838 839 840 841 844 846 847 849 849 851 852 852 853 854 855 856 856 856 856 857 857 856 855 855 854 853 852 851 850 849 847 846 845 843 842 840 838 837 835 833 831 829 828 826 824 822 820 818 816 814 813 811 808 806 804 802 801 799 796 794 791 788 785 782 778 775 773 770 767 764
801 802 812 828 833 845 855 846 845 856 851 829 816 831 854 858 843 828 825 826 827 829 830 833 834 835 837 837 839 842 843 845 847 847 849 850 851 853 853 854 855 857 857 858 858 858 858 858 857 856 856 855 854 853 852 850 849 848 847 846 844 842 841 839 838 836 834 832 830 829 827 825 823 821 819 817 815 813 811 809 806 804 802 801 799 796 794 791 788 785 781 778 775 772 769 766 763
804 794 807 822 815 817 828 824 824 839 850 842 831 838 844 840 831 822 823 826 825 829 831 833 836 836 837 841 842 843 845 846 847 848 849 851 852 853 854 855 856 857 858 859 859 859 859 858 858 857 856 855 854 853 852 851 850 849 848 847 845 843 842 840 838 837 835 833 831 829 828 826 824 822 820 818 816 813 811 809 807 805 803 801 800 797 795 792 788 785 781 777 774 771 768 765 761
808 805 814 811 794 794 815 823 818 832 855 848 836 845 841 833 834 826 823 829 829 830 833 834 837 838 839 843 843 844 846 847 848 849 850 851 853 854 855 856 857 858 858 859 859 859 859 859 858 857 856 856 855 854 853 852 851 850 849 847 846 844 842 841 839 837 835 834 832 831 829 827 825 823 821 819 816 814 812 810 808 805 803 802 801 798 796 792 788 785 781 777 774 771 768 765 761
804 812 805 796 793 791 805 827 830 843 865 850 834 846 848 848 848 832 826 834 832 830 833 835 836 839 841 842 842 845 847 847 848 849 851 852 853 855 856 856 858 858 858 859 859 859 859 859 859 858 857 856 856 855 854 854 852 851 850 848 847 845 843 842 840 838 837 835 833 831 830 828 826 824 822 819 817 815 813 811 808 806 804 803 801 799 796 792 789 785 781 777 774 771 768 764 761
787 793 783 791 814 813 812 829 836 847 863 854 839 841 847 853 845 832 832 835 832 832 833 835 837 839 841 842 843 845 847 848 848 849 851 853 854 855 856 856 857 858 859 859 859 859 859 859 859 859 858 857 857 856 855 855 853 852 851 849 848 846 845 843 841 839 838 836 834 833 831 829 827 824 822 820 818 816 814 811 809 806 805 803 802 799 796 792 788 785 781 777 774 771 768 764 761
776 780 775 781 799 808 813 819 824 838 852 857 857 851 847 843 829 824 830 828 827 833 833 835 838 838 840 842 843 845 846 847 848 850 852 853 855 856 856 857 858 858 859 859 860 860 860 860 860 860 859 858 857 857 856 856 854 853 852 850 849 847 845 844 842 840 839 837 836 834 832 830 827 825 823 821 819 817 814 812 809 807 805 804 802 800 797 793 789 785 781 778 774 771 768 764 761
786 790 789 787 789 797 807 807 811 831 844 850 861 860 845 828 815 814 820 821 824 828 830 834 836 837 840 840 842 844 845 847 849 850 852 854 855 856 856 858 859 859 860 860 861 861 861 861 861 861 861 859 858 858 857 856 855 854 852 851 849 848 846 845 843 842 840 839 837 835 833 831 828 826 824 822 820 818 815 813 810 808 806 805 804 801 798 795 791 786 782 778 775 771 768 765 761
789 794 793 794 797 803 817 821 817 826 836 836 845 858 845 820 809 810 812 818 821 821 827 833 834 836 839 840 842 844 845 848 850 851 853 854 855 855 857 858 860 861 861 861 862 863 863 863 862 862 862 861 860 859 858 857 856 855 853 852 850 849 847 846 845 843 842 840 838 836 834 831 829 827 825 823 821 819 816 814 811 809 808 807 806 803 800 796 792 788 783 779 776 772 769 765 760